Pokrov

Ukraine / Dnipropetrovsk Region     47˚39′21″N   34˚06′10″E
temp.,
°C
wind,
m/s
gust,
m/s
humid.,
%
clouds,
%
prec.,
mm/h
press.,
hPa
HPBL,
m
3 december, thu
thu323:00+2˚e4773100 0.0 1027422
02:00+2˚e5876100 0.0 1026391
05:00+3˚e5785100 0.0 1026348
08:00+3˚ese5888100 0.0 1026369
11:00+5˚ese5882100 0.0 1026499
14:00+5˚ese5779100 0.0 1025607
17:00+5˚ese5882100 0.0 1025599
20:00+5˚ese6981100 0.0 1025539
4 december, fri
fri423:00+4˚ese6108691 0.0 1025446
02:00+3˚ese6109091 0.0 1025374
05:00+3˚ese6119290 0.0 1024392
08:00+3˚ese6108793 0.0 1025470
11:00+4˚ese7979100 0.0 1025535
14:00+6˚ese6975100 0.0 1024580
17:00+4˚e6128234 0.0 1025442
20:00+3˚ese6128424 0.0 1026497
5 december, sat
sat523:00+2˚e5118928 0.0 1026432
02:00+1˚e5129029 0.0 1026381
05:00+2˚e6118729 0.0 1026449
08:00+1˚e697763 0.0 1028574
11:00+2˚e696865 0.0 1028607
14:00+3˚e6106671 0.0 1027702
17:00+2˚e4127122 0.0 1028465
20:00+1˚e6126611 0.0 1029511
6 december, sun
sun623:00−1˚e511560 0.0 1030443
02:00−2˚e511560 0.0 1030436
05:00−3˚e511510 0.0 1030437
08:00−3˚e613490 0.0 1030453
11:00e711430 0.0 1030561
14:00+2˚e710440 0.0 1029670
17:00e614470 0.0 1029501
20:00−2˚e713420 0.0 1030519
7 december, mon
mon723:00−3˚e613440 0.0 1030519
02:00−3˚e713450 0.0 1030506
05:00−4˚e613560 0.0 1030462
08:00−4˚e714600 0.0 1030503
11:00e812460 0.0 1030653
14:00+1˚e812420 0.0 1029777
17:00−2˚e714550 0.0 1028539
20:00−3˚e614630 0.0 1028658